Tracking 26492 objects as of 8-Dec-2022
HD Live streaming from Space Station
objects crossing your sky now

OBJECT E

Track OBJECT E now!
10-day predictions


NORAD ID: 45915
Int'l Code: 2019-079E
Perigee: 511.5 km
Apogee: 783.6 km
Inclination: 97.7 °
Period: 97.5 minutes
Semi major axis: 7018 km
RCS: Unknown
Launch date: November 25, 2019
Source: Commonwealth of Independent States (former USSR) (CIS)
Launch site: PLESETSK MISSILE AND SPACE COMPLEX (PKMTR)
aabbcc
Your satellite tracking list
Your tracking list is empty




NASA's NSSDC Master Catalog

Two Line Element Set (TLE):
1 45915U 19079E   22341.85137497  .00001929  00000-0  21000-3 0  9993
2 45915  97.7479  16.5748 0193777 237.4630 120.7732 14.76494830129100
Source of the keplerian elements: AFSPC